OV1-4 R/B, 2124

Orbit data source: Space-Track

OV1-4 R/B, 2124 is space debris in LEO originally from a launch on Wed, 30 Mar 1966 UTC launched from the Air Force Western Test Range (AFWTR). Debris objects in space refer to the collection of defunct objects orbiting the Earth. Examples of debris include non-operational satellites, rocket bodies, and fragments generated from explosions, collisions, or faulty payload assembly.

Loading next visibility...
Identifier
2124, 1966-025D
Orbit
LEO
Country
Flag of USUS
Related business
Manufacturer
ABL
Mission
Spacecraft
Bus & Motor
ALTAIR, Unknown motor
Mass
~125 kg wet, ~125 kg dry
Launch date (UTC)
1966-03-30 (60 years ago)
Launch vehicle
Unknown
Launch site
Air Force Western Test Range (AFWTR)
Object type
Payload
Rocket body
Debris
Shape & HBR
Unknown
Radar Cross Section
Medium (>0.1 m² and <1 m²)

Expand to show TLE details & history
Last TLE update: 1 day ago

TLE from 1 day ago
0 OV1-4 R/B
1 02124U 66025D   26135.27278952  .00000330  00000-0  51847-4 0  9992
2 02124 144.5102 252.1551 0081103 234.1099 125.2023 13.87839410 47022
Epoch: 2026-05-15T06:32Z
TLE epoch observation values (Epoch: 2026-05-15T06:32:49.014Z)
Latitude
Longitude
-79.05561°
Altitude
969.742 km
Speed
7.351 km/s
True Right ascension
16h 48m 37s
True Declination
0° 00' 00"
Sunlit
Object was in full shadow at epoch
Visualization orbit readout
Latitude
Unknown
Longitude
Unknown
Altitude
Unknown
Speed
Unknown
Apparent Right ascension
Unknown
Apparent Declination
Unknown
Sunlit
N/A
Visualization observer readout
Local Sidereal Time
20:02:21
Azimuth
Unknown
Elevation
Unknown
Doppler factor
Unknown
Orbital elements
Apogee altitude
998.541 km
Perigee altitude
879.849 km
Semi-major axis
7,317.332 km
Eccentricity
0.00811
Inclination
144.5102°
RAAN
252.1551°
Arg. of periapsis
234.1099°
True anomaly
125.95727°
Mean anomaly
125.2023°
Eccentric anomaly
125.58023°
Mean motion
3.46748 °/min
Orbital period
103.82 mins
BSTAR
0.000051847
Loading maneuver chart data...
Computing Atmospheric mass density...
Loading historical data...
Loading historical data...
Loading historical data...
Loading historical data...
Loading historical data...
Loading historical data...
Loading historical data...

Documentation

Showing up to 5 results
|